Home   Weather   Roskilde   Past weeks

Flag for Denmark Past Weather in Roskilde, Denmark — Yesterday and Last 2 Weeks

Now
48 °F

Broken clouds.


Feels Like: 43 °F
Forecast: 36 / 48 °F
Wind: 12 mph from South

Location: Koebenhavn / Roskilde

Current Time: Apr 28, 2017 at 4:14:46 pm

Latest Report: Apr 28, 2017 at 3:50 pm


Visibility: N/A

Pressure: 29.86 "Hg

Humidity: 76%

Dew Point: 41 °F

Location of RoskildeLocation

Past Weather in Roskilde — Graph

°F

Roskilde Temperature Yesterday

Maximum temperature yesterday: 48 °F (at 12:20 pm)
Minimum temperature yesterday: 30 °F (at 1:50 am)
Average temperature yesterday: 40 °F

High & Low Weather Summary for the Past Weeks

 TemperatureHumidityPressure
High54 °F (Apr 14, 2:50 pm)100% (Apr 15, 4:50 am)30.60 "Hg (Apr 15, 4:50 am)
Low25 °F (Apr 19, 4:50 am)29% (Apr 22, 6:50 pm)29.50 "Hg (Apr 15, 1:50 pm)
Average41 °F76%29.95 "Hg
* Reported Apr 13 2:20 pm — Apr 28 2:50 pm, Roskilde, Weather by CustomWeather, © 2017

Note: Actual official high and low records may vary slightly from our data, if they occured in-between our weather recording intervals... More about our weather records

Advertising

Roskilde Weather History for the Previous 24 Hours

Scroll right to see more
 ConditionsComfort  
Time TempWeatherWind HumidityBarometerVisibility
2:50 pm
Fri, Apr 28
46 °FSprinkles. Broken clouds.12 mph82%29.86 "HgN/A
2:20 pm46 °FPartly sunny.8 mph87%29.86 "HgN/A
1:50 pm46 °FBroken clouds.7 mph87%29.86 "HgN/A
1:20 pm46 °FBroken clouds.7 mph87%29.86 "HgN/A
12:50 pm45 °FLight rain. Broken clouds.9 mph93%29.86 "Hg6 mi
12:20 pm45 °FLight rain. Broken clouds.10 mph93%29.86 "HgN/A
11:50 am45 °FDrizzle. Partly sunny.12 mph87%29.86 "HgN/A
11:20 am45 °FMostly cloudy.10 mph87%29.86 "HgN/A
10:50 am45 °FPartly sunny.13 mph87%29.86 "HgN/A
10:20 am45 °FBroken clouds.12 mph87%29.86 "HgN/A
9:50 am43 °FSprinkles. Broken clouds.13 mph93%29.86 "Hg5 mi
9:20 am43 °FLight rain. Partly sunny.10 mph93%29.86 "HgN/A
8:50 am43 °FLight rain. Broken clouds.10 mph93%29.86 "HgN/A
8:20 am43 °FLight rain. Partly sunny.12 mph93%29.86 "HgN/A
7:50 am43 °FSprinkles. Partly sunny.8 mph87%29.83 "HgN/A
7:20 am43 °FSprinkles. Mostly cloudy.9 mph87%29.86 "HgN/A
6:50 am43 °FLight rain. Partly sunny.8 mph87%29.83 "HgN/A
6:20 am43 °FMostly cloudy.12 mph81%29.83 "HgN/A
5:50 am43 °FPartly sunny.10 mph81%29.83 "HgN/A
5:20 am43 °FOvercast.10 mph81%29.83 "HgN/A
4:50 am43 °FSprinkles. Passing clouds.12 mph81%29.83 "HgN/A
4:20 am43 °FSprinkles. Overcast.13 mph81%29.83 "HgN/A
3:50 am43 °FSprinkles. Partly cloudy.10 mph81%29.86 "HgN/A
3:20 am43 °FSprinkles. Passing clouds.10 mph81%29.86 "HgN/A
2:50 am43 °FSprinkles. Passing clouds.12 mph81%29.86 "HgN/A
2:20 am43 °FSprinkles. Mostly cloudy.10 mph81%29.86 "HgN/A
1:50 am43 °FSprinkles. Partly cloudy.8 mph81%29.86 "HgN/A
1:20 am43 °FLight rain. Passing clouds.8 mph81%29.89 "HgN/A
12:50 am41 °FOvercast.6 mph87%29.89 "HgN/A
12:20 am41 °FMostly cloudy.7 mph81%29.89 "HgN/A
11:50 pm
Thu, Apr 27
41 °FOvercast.8 mph81%29.89 "HgN/A
11:20 pm43 °FOvercast.8 mph76%29.89 "HgN/A
10:50 pm39 °FPassing clouds.6 mph81%29.89 "HgN/A
10:20 pm41 °FPassing clouds.7 mph76%29.89 "HgN/A
9:50 pm43 °FOvercast.6 mph76%29.89 "HgN/A
9:20 pm43 °FMostly cloudy.6 mph76%29.89 "HgN/A
8:50 pm43 °FPassing clouds.6 mph76%29.89 "HgN/A
8:20 pm43 °FSprinkles. Overcast.8 mph76%29.89 "HgN/A
7:50 pm45 °FLight rain. Broken clouds.9 mph66%29.89 "HgN/A
7:20 pm46 °FBroken clouds.10 mph57%29.89 "HgN/A
6:50 pm46 °FPartly sunny.12 mph57%29.86 "HgN/A
6:20 pm46 °FBroken clouds.13 mph57%29.86 "HgN/A
5:50 pm46 °FPartly sunny.13 mph53%29.86 "HgN/A
5:20 pm46 °FPartly sunny.12 mph62%29.86 "HgN/A
4:50 pm46 °FPartly sunny.12 mph53%29.86 "HgN/A
4:20 pm48 °FPartly sunny.15 mph54%29.86 "HgN/A
Weather by CustomWeather, © 2017

See weather overviewHow to use our weather pages